Webhosting  |  VPS  |  Domény


V tuto chvíli si zábavné a zajímavé obrázky prohlíží 266 uživatelů z webu a 13 z mobilu...

 NOVÉ 20:54  0   2/0    no time to lose
 NOVÉ 20:35  2   3/2    balici metody Zeman
 NOVÉ 19:25  0   8/4    Was-just-sayin
 NOVÉ 14:22  8   37/1    eko slavs
 NOVÉ 11:54  11   9/10    - M.HRDY - jizdenky -
 NOVÉ 11:51  10   26/7    legendarny suboj
 NOVÉ 8:55  15   49/1    Smallest things
 NOVÉ 8:39  0   20/1    The-Winter-Sun
 NOVÉ 8:39  3   4/4    No time to die
 NOVÉ 8:19  0   8/1    Mr. Beans hedgehog
 NOVÉ 8:15  2   24/0    cenek nema talent
 NOVÉ 7:46  4   11/1    One-of-them-is-getting-that-weird-inb...
 NOVÉ 7:41  0   7/3    nosi hadi noze
 NOVÉ 7:37  2   3/4    zamysli se nad sebou
 NOVÉ 7:23  11   26/1    Logic 3329
 NOVÉ 7:21  1   11/3    What-a-nice-Guy-
 NOVÉ 7:21  3   15/0    Go-Naked-Ladies
 NOVÉ 7:21  6   20/1    Wellbut
 NOVÉ 7:21  0   12/5    He-is-not-wrong
 NOVÉ 7:13  14   15/2    Titulek - Strana nenavisti utoci na p...
 NOVÉ 7:10  11   24/6    kdo podvadel
 NOVÉ 6:55  1   7/4    Billie Buscemi
 NOVÉ 6:22  2   3/3    1581948300000
 NOVÉ 6:22  1   5/1    1581955399000
 NOVÉ 6:22  3   4/5    1581948087000
 NOVÉ 6:22  9   4/2    1581945916000
 NOVÉ 18.02.2020  1   26/3    problem s krizem
 NOVÉ 18.02.2020  26   9/8    kdyz ti nekdo rekne ze dnesni hudba j...
 NOVÉ 18.02.2020  4   21/1    times are changing
 NOVÉ 18.02.2020  3   6/3    kdyz ma tvuj kluk narozeniny
 NOVÉ 18.02.2020  0   2/11    ginger camouflage
 NOVÉ 18.02.2020  29   64/1    Bures Bolt
 NOVÉ 18.02.2020  8   12/2    bohous
 NOVÉ 18.02.2020  2   20/8    mod si zas cvrkne od hrozy 2
 NOVÉ 18.02.2020  2   19/13    5 karet
 NOVÉ 18.02.2020  6   8/4    StarDOOM-Valley
 NOVÉ 18.02.2020  5   20/5    1 2
 NOVÉ 18.02.2020  0   15/2    Thats-is-my-favourite-story
 NOVÉ 18.02.2020  3   16/6    Respectful-son
 NOVÉ 18.02.2020  23   9/4    Kdyz nemas v hlave musis mit na papire
 NOVÉ 18.02.2020  6   13/2    Black-Sabbath
 NOVÉ 18.02.2020  4   9/3    SW logic
 NOVÉ 18.02.2020  8   32/1    jin vs obalky
 NOVÉ 18.02.2020  5   45/2    corona virus in india
 NOVÉ 18.02.2020  4   12/2    Best buddies
 NOVÉ 18.02.2020  9   24/3    nove auto noznice
 NOVÉ 18.02.2020  9   18/9    how russians age
 NOVÉ 17.02.2020  11   6/1    nemnozte se azyjaty
 NOVÉ 17.02.2020  5   27/2    The-worst-kind-of-time-paradox
 NOVÉ 17.02.2020  10   15/3    I-hate-when-they-catch-me-like-this
 NOVÉ 17.02.2020  8   18/0    Bohus
 NOVÉ 17.02.2020  7   17/0    Unexpected-Delivery
 NOVÉ 17.02.2020  9   33/1    To je porad bude lip ale kdy
 NOVÉ 17.02.2020  7   45/3    Roumenistova skolni leta
 NOVÉ 17.02.2020  6   20/1    I-want-it-now
 NOVÉ 17.02.2020  8   1/6    Cumshoes
 NOVÉ 17.02.2020  5   29/6    Just-a-cat
 NOVÉ 17.02.2020  0   17/1    pan hovori k veci
 NOVÉ 17.02.2020  2   8/1    asi nasla dobre madlo
 NOVÉ 17.02.2020  13   11/7    Chlupata familie
 NOVÉ 17.02.2020  14   15/11    Hmmm 2
 NOVÉ 17.02.2020  10   10/6    Checkmate zz
 NOVÉ 17.02.2020  1   11/6    One-day
 NOVÉ 17.02.2020  2   11/7    Gods-plan-for-mankind-OC
 NOVÉ 17.02.2020  0   9/2    maco2
 NOVÉ 17.02.2020  1   6/6    maco1
 NOVÉ 17.02.2020  1   15/1    incredible stepfather
 NOVÉ 17.02.2020  4   13/8    Problemy lidi s malym perem
 NOVÉ 17.02.2020  1   16/4    Wait75
 NOVÉ 17.02.2020  3   15/2    Slovansky pokrok
 NOVÉ 17.02.2020  3   6/9    Wake-up-and-you-hear-loud-noises-at-y...
 NOVÉ 17.02.2020  0   13/9    Echo loc
 NOVÉ 17.02.2020  1   14/13    Dont-cry-for-him-Argentina
 NOVÉ 17.02.2020  5   18/0    nebulte
 NOVÉ 16.02.2020  8   14/12    vsichni svati
 NOVÉ 16.02.2020  13   6/5    potom to tak vyzera
 NOVÉ 16.02.2020  52   35/103    huawei p30
 NOVÉ 16.02.2020  0   26/2    przdna hlava 2020
 NOVÉ 16.02.2020  3   12/3    vzdycky most 2020
 NOVÉ 16.02.2020  13   18/24    twwet 2020
 NOVÉ 16.02.2020  1   2/15    lampicka 2020
 NOVÉ 16.02.2020  4   8/18    coronavirus 2020 2
 NOVÉ 16.02.2020  4   8/22    Doktor 2020
 NOVÉ 16.02.2020  5   11/1    - fujtajbl to sem se lek -
 NOVÉ 16.02.2020  8   11/3    Bitcoin je zabava
 NOVÉ 16.02.2020  1   25/2    napnute kosele VS napnute kosele
 NOVÉ 16.02.2020  3   20/5    Souboj titanu
 NOVÉ 16.02.2020  0   9/2    dnes uz vrazi nejsou to co byvali
 NOVÉ 16.02.2020  5   9/2    gnbn
 NOVÉ 16.02.2020  5   10/1    Frozen Syria
 NOVÉ 16.02.2020  0   16/12    Just hold it
 NOVÉ 16.02.2020  4   11/4    Deepest
 NOVÉ 16.02.2020  22   33/2    Put--in
 NOVÉ 16.02.2020  4   6/9    Lehke sexualni naznaky
 NOVÉ 16.02.2020  9   15/5    Hate-when-it-happens
 NOVÉ 16.02.2020  4   26/1    --Wholesome
 NOVÉ 16.02.2020  4   14/3    Special valentine day
 NOVÉ 16.02.2020  4   36/2    Outside-has-the-big-gay
 NOVÉ 16.02.2020  1   10/8    Mission-Failed
 NOVÉ 16.02.2020  14   17/3    Najdi rozdil mezi muslimy a Kotlebovci
 NOVÉ 16.02.2020  0   20/5    Its-homeopathic-with-essential-oils
 NOVÉ 16.02.2020  2   16/7    I-want-to-die
 NOVÉ 16.02.2020  4   18/0    I-Know-now
 NOVÉ 16.02.2020  5   5/3    fetka in future
 NOVÉ 16.02.2020  45   5/5    Crack the Code
 NOVÉ 15.02.2020  2   4/8    plakaty 11
 NOVÉ 15.02.2020  1   5/8    plakaty 9
 NOVÉ 15.02.2020  1   5/8    plakaty 10
 NOVÉ 15.02.2020  0   3/9    plakaty 8
 NOVÉ 15.02.2020  2   5/8    plakaty 7
 NOVÉ 15.02.2020  0   4/9    plakaty 6
 NOVÉ 15.02.2020  1   5/8    plakaty 5
 NOVÉ 15.02.2020  1   5/7    plakaty 4
 NOVÉ 15.02.2020  0   4/7    plakaty 3
 NOVÉ 15.02.2020  0   6/7    plakaty 2
 NOVÉ 15.02.2020  3   5/7    plakaty 1
 NOVÉ 15.02.2020  1   8/6    insta puss
 NOVÉ 15.02.2020  2   18/2    girl playng with her pussy
 NOVÉ 15.02.2020  4   12/4    rousky jsou nejlepsi darek
 NOVÉ 15.02.2020  22   15/8    - ze zverimexu -
 NOVÉ 15.02.2020  1   8/1    cool pants
 NOVÉ 15.02.2020  3   13/3    FB ADS
 NOVÉ 15.02.2020  3   19/0    - ZEN sutr -
 NOVÉ 15.02.2020  29   3/5    Objektiv Sigma 800 mm 229 km v praxi
 NOVÉ 15.02.2020  16   7/4    Objektiv Sony Reflex 500 mm 6 km
 NOVÉ 15.02.2020  25   6/4    Objektiv MTO 1000a v praxi
 NOVÉ 15.02.2020  5   7/3    ma ji malou
 NOVÉ 15.02.2020  9   12/16    to je uz moc
 NOVÉ 15.02.2020  0   7/16    sajuz nerus ty mna
 NOVÉ 15.02.2020  0   12/2    kudlanka bezbozna
 NOVÉ 15.02.2020  7   17/5    telekineticke schopnosti
 NOVÉ 15.02.2020  5   12/13    IMG-20200215-WA0008
 NOVÉ 15.02.2020  0   27/1    - zimni jezura -
 NOVÉ 15.02.2020  5   13/2    - Hyjeee -
 NOVÉ 15.02.2020  6   6/26    podpis hore sem
 NOVÉ 15.02.2020  5   15/3    koukej mi do voci
 NOVÉ 15.02.2020  2   14/3    a luza maka a plati dane
 NOVÉ 15.02.2020  7   17/42    To zas bude hejtu
 NOVÉ 15.02.2020  2   6/3    - opozdila Valentinka -
 NOVÉ 15.02.2020  11   12/3    - M.HRDY - desetniky -
 NOVÉ 15.02.2020  5   30/4    look mom no hands
 NOVÉ 15.02.2020  3   6/10    prijimam telo pana
 NOVÉ 15.02.2020  3   16/4    dark Harley
 NOVÉ 15.02.2020  2   1/11    catolic pedofiles be like
 NOVÉ 15.02.2020  1   5/5    Jezis Nemanzelsky za mlada
 NOVÉ 15.02.2020  0   21/0    true metal fan
 NOVÉ 15.02.2020  1   7/2    tetovacie studio
 NOVÉ 15.02.2020  7   11/0    kolko pasazierov si menilo spodky
 NOVÉ 15.02.2020  8   19/0    elektrosen4
 NOVÉ 15.02.2020  8   19/0    elektrosen3
 NOVÉ 15.02.2020  3   22/0    elektrosen2
 NOVÉ 15.02.2020  7   32/0    elektrosen1
 NOVÉ 15.02.2020  3   22/7    uklizecka malicka
 NOVÉ 15.02.2020  1   12/6    poletucha
 NOVÉ 15.02.2020  3   13/5    pichni mi vakcinu
 NOVÉ 15.02.2020  7   14/11    bang would not
 NOVÉ 15.02.2020  7   18/7    wet Cleopatra
 NOVÉ 15.02.2020  1   13/5    ma ho tam velkyho
 NOVÉ 15.02.2020  1   25/3    thicc Lara
 NOVÉ 15.02.2020  5   12/4    za Hordu zivot polozis
 NOVÉ 15.02.2020  0   15/7    Paladin or warlock
 NOVÉ 15.02.2020  0   20/5    Frostwolf clan
 NOVÉ 15.02.2020  0   11/8    Sylvanas did nothing wrong 2
 NOVÉ 15.02.2020  3   14/4    vingardium leviosaaah
 NOVÉ 15.02.2020  0   17/4    not so holy priest
 NOVÉ 15.02.2020  4   25/5    Belfka
 NOVÉ 15.02.2020  8   16/5    Warcraft 3 reforged je fuj
 NOVÉ 15.02.2020  5   28/9    Zug zug
 NOVÉ 15.02.2020  10   4/6    gf after 14 years
 NOVÉ 15.02.2020  3   17/4    IMG-20200214-WA0001
 NOVÉ 15.02.2020  5   22/2    Chibicka


Vítejte na Roumingu, serveru plném zábavných a zajímavých obrázků, videí, vtipů a odkazů. Najdete zde materiál pro hodiny a hodiny online zábavy a legrace.
Je zde obrovské množství zábavných a zajímavých obrázků, legračních videí, mnoho vtipů a celá řada odkazů. Kromě toho zde máme diskusní fórum a komu to nestačí, je zde i ostřejší sekce na sesterském webu Roumenovo Maso, která je přístupná až od 18 let.

Pravidla    Kontakt
Tento web používá k poskytování služeb, personalizaci reklam a analýze návštěvnosti soubory cookie. Podmínky pro uchovávání nebo přístup ke cookies je možné nastavit ve vašem prohlížeči. Více...